Location: Orange Harbor Mobile Home Park
(26.6923°N, 81.7937°W)
Time: 07:50:01
(UTC+00:00)

GPS 2-15 Rocket1 - Pass Details

Date: 19 September 2020
Orbit: 624 x 675 km, 19.8° (Epoch: 29 October)

Event Time Altitude Azimuth Distance (km) Brightness Sun altitude
Exits shadow 09:57:46 28° 219° (SW) 1,181 4.1 -17.9°
Maximum altitude 09:59:16 35° 182° (S) 1,012 4.0 -17.6°
Drops below altitude 10° 10:03:29 10° 116° (ESE) 1,979 6.4 -16.6°
Sets 10:05:59 0° 107° (ESE) 2,882 7.6 -16.1°
